Forside
METAR-TAF:

METAR-TAF

Lufthavne :

Tokushima, Japan

Breddekreds: 34-08N, længdekreds: 134-37E, højde: 8 m

Aktuelle vejr

Denne rapport blev lavet for 1 time og 8 minutter siden, kl. 07:00 UTC
Vind 16 kt fra nord med vindstød på up til 26 kt, varierende mellem nordnordvest og nordnordøst
Temperatur 9°C
Fugtighed 46%
Tryk 1023 hPa
Sigt 10 km eller mere
Nogle få skyer i en højde af 3000 ft
Spredte skyer i en højde af 5000 ft
Brudte skyer i en højde af 7000 ft

METAR: RJOS 270700Z 36016G26KT 330V030 9999 FEW030 SCT050 BKN070 09/M02 Q1023

Tid: 17:08 (08:08 UTC)


TAF: fraværende

Vejrobservationer og prognoser fra mere end 4000 lufthavne (METAR og TAF).

De gule og røde prikker repræsenterer de meteorologiske stationer.

Flyt musen over at se navnet på stationen.

Så klik over at se vejr observationer og prognoser.

At skifte det kort: Klik på de grønne knapper med et sort kors for at zoome ind; på den grønne knap med en bindestreg for at zoome ud; eller på de grønne pile for tilstødende kort.


METAR-TAF: